Regional Weather Roundup
Issued by NWS Goodland, KS

Home | Current Version | Previous Version | Text Only | Print | Product List | Glossary Off
Versions: 1 2 3 4 5 6 7 8 9 10 11 12 13 14 15 16 17 18 19 20 21 22 23 24 25 26 27 28 29 30 31 32 33 34 35 36 37 38 39 40 41 42 43 44 45 46 47 48 49 50

000
ASUS43 KGLD 290808
RWRGLD

GOODLAND FORECAST AREA HOURLY WEATHER ROUNDUP
NATIONAL WEATHER SERVICE GOODLAND KS
200 AM MDT SAT APR 29 2017

...OFFICIAL OBSERVATIONS...

CITY           SKY/WX    TMP DP  RH WIND       PRES   REMARKS
GOODLAND KS    LGT SNOW  32  32 100 NE21      29.99F FOG     WCI  20
HILL CITY KS   CLOUDY    39  38  96 N17G25    30.00F FOG
IMPERIAL NEB   CLOUDY    37  32  82 N13       30.07F
MCCOOK NEB     CLOUDY    38  34  85 N13       30.06S
AKRON CO       CLOUDY    31  28  89 NE16      30.06F WCI  20
BURLINGTON CO  NOT AVBL
LIMON CO       LGT SNOW  29  28  96 N20G29    30.01S FOG     WCI  16
$$

...UNOFFICIAL OBSERVATIONS...

CITY           SKY/WX    TMP DP  RH WIND       PRES   REMARKS
LENORA KS        N/A     37  32  82 MISG        N/A
NORTON KS      CLOUDY    37  34  87 N13G20    30.02S
SHARON SPRINGS   N/A     33  31  93 N13         N/A
TRENTON NEB      N/A     36  32  85 N9          N/A
KIT CARSON CO    N/A     31  28  87 MISG        N/A
$$




USA.gov is the U.S. government's official web portal to all federal, state and local government web resources and services.